Location: Wellington
(41.3000°S, 174.7830°E)
Time: 13:51:04
(UTC+13:00)

Cosmos 1515 Rocket - Pass Details

Date: 24 January 2019
Orbit: 607 x 629 km, 82.5° (Epoch: 19 February)

Event Time Altitude Azimuth Distance (km) Brightness Sun altitude
Rises 21:24:17 0° 14° (NNE) 2,914 6.6 -6.5°
Reaches altitude 10° 21:26:37 10° 22° (NNE) 2,016 5.7 -6.9°
Maximum altitude 21:30:45 37° 89° (E) 988 4.2 -7.6°
Drops below altitude 10° 21:34:55 10° 156° (SSE) 2,041 6.4 -8.2°
Sets 21:37:18 0° 163° (SSE) 2,956 7.3 -8.6°
